Orange, MA

5:03 AM EST on December 11, 2017 (GMT -0500)
Orange Municipal

Weather History for KORE - October, 2013

Change the Weather History Date:

Tuesday, October 15, 2013

  Actual Average Record
Temperature  
Mean Temperature 58 °F -  
Max Temperature 68 °F 57 °F 75 °F (2014)
Min Temperature 50 °F 34 °F 24 °F (2002)
Degree Days  
Heating Degree Days 7    
Growing Degree Days 8 (Base 50)    
Moisture  
Dew Point 51 °F    
Average Humidity 79    
Maximum Humidity 93    
Minimum Humidity 59    
Precipitation  
Precipitation 0.00 in - - ()
Sea Level Pressure  
Sea Level Pressure 30.23 in    
Wind  
Wind Speed 1 mph (East)    
Max Wind Speed 7 mph    
Max Gust Speed -    
Visibility 10 miles    
Events      
Averages and records for this station are not official NWS values.
T = Trace of Precipitation, MM = Missing Value Source: NWS Daily Summary

Daily Weather History Graph

Daily Weather History Graph

Search for Another Location

Airport or City:

Trip Planner

Search our weather history database for the weather conditions in past years. The results will help you decide how hot, cold, wet, or windy it might be!

Date:

Astronomy

Oct. 15, 2013 Rise Set
Actual Time 7:02 AM EDT 6:06 PM EDT
Civil Twilight 6:34 AM EDT 6:34 PM EDT
Nautical Twilight 6:01 AM EDT 7:07 PM EDT
Astronomical Twilight 5:28 AM EDT 7:40 PM EDT
Moon 4:13 PM EDT (10/15) 3:17 AM EDT (10/15)
Length of Visible Light 12h 00m
Length of Day
11h 04m
Waxing Gibbous, 87% of the Moon is Illuminated
Oct 15
Waxing Gibbous
Oct 18
Full
Oct 26
Last Quarter
Nov 3
New
Nov 10
First Quarter

Hourly Weather History & Observations

Time (EDT) Temp. Dew Point Humidity Pressure Visibility Wind Dir Wind Speed Gust Speed Precip Events Conditions
12:52 AM 54.0 °F 51.1 °F 90% 30.26 in 10.0 mi Calm Calm - N/A   Overcast
1:52 AM 53.1 °F 51.1 °F 93% 30.26 in 10.0 mi Calm Calm - N/A   Overcast
2:52 AM 54.0 °F 51.1 °F 90% 30.26 in 10.0 mi Calm Calm - N/A   Overcast
3:52 AM 54.0 °F 50.0 °F 86% 30.25 in 10.0 mi Calm Calm - N/A   Mostly Cloudy
4:52 AM 52.0 °F 50.0 °F 93% 30.25 in 10.0 mi Calm Calm - N/A   Overcast
5:52 AM 51.1 °F 48.9 °F 92% 30.26 in 10.0 mi Calm Calm - N/A   Mostly Cloudy
6:52 AM 50.0 °F 48.0 °F 93% 30.26 in 9.0 mi Calm Calm - N/A   Overcast
7:52 AM 51.1 °F 48.9 °F 92% 30.27 in 10.0 mi Calm Calm - N/A   Overcast
8:52 AM 54.0 °F 50.0 °F 86% 30.27 in 10.0 mi Calm Calm - N/A   Overcast
9:52 AM 59.0 °F 51.1 °F 75% 30.26 in 10.0 mi Calm Calm - N/A   Overcast
10:52 AM 64.0 °F 52.0 °F 65% 30.25 in 10.0 mi East 6.9 mph - N/A   Overcast
11:52 AM 64.9 °F 52.0 °F 63% 30.25 in 10.0 mi ENE 3.5 mph - N/A   Overcast
12:18 PM 64.4 °F 51.8 °F 64% 30.24 in 10.0 mi Calm Calm - N/A   Overcast
12:52 PM 64.9 °F 52.0 °F 63% 30.24 in 10.0 mi East 4.6 mph - N/A   Overcast
1:52 PM 66.0 °F 52.0 °F 60% 30.21 in 10.0 mi East 4.6 mph - N/A   Overcast
2:52 PM 66.9 °F 52.0 °F 59% 30.19 in 10.0 mi East 4.6 mph - N/A   Overcast
3:52 PM 66.9 °F 52.0 °F 59% 30.18 in 10.0 mi Calm Calm - N/A   Overcast
4:52 PM 66.0 °F 53.1 °F 63% 30.17 in 10.0 mi East 4.6 mph - N/A   Overcast
5:52 PM 63.0 °F 53.1 °F 70% 30.17 in 10.0 mi Calm Calm - N/A   Partly Cloudy
6:52 PM 57.9 °F 54.0 °F 87% 30.19 in 10.0 mi Calm Calm - N/A   Scattered Clouds
7:52 PM 57.0 °F 54.0 °F 89% 30.19 in 10.0 mi Calm Calm - N/A   Overcast
8:52 PM 57.0 °F 53.1 °F 87% 30.21 in 10.0 mi Calm Calm - N/A   Overcast
9:52 PM 57.0 °F 53.1 °F 87% 30.20 in 10.0 mi Calm Calm - N/A   Overcast
10:52 PM 57.0 °F 48.9 °F 74% 30.19 in 10.0 mi SSE 3.5 mph - N/A   Overcast
11:52 PM 54.0 °F 50.0 °F 86% 30.18 in 10.0 mi Calm Calm - N/A   Overcast